Watford City, ND

4:34 AM CST on December 06, 2019 (GMT -0600)
Watford City

Weather History for KS25 - October, 2019

Change the Weather History Date:

Thursday, October 31, 2019

  Actual Average (KISN) Record (KISN)
Temperature  
Mean Temperature 28 °F -  
Max Temperature 42 °F 50 °F 75 °F (1990)
Min Temperature 14 °F 25 °F -2 °F (2002)
Degree Days  
Heating Degree Days 37    
Moisture  
Dew Point 20 °F    
Average Humidity 64    
Maximum Humidity 93    
Minimum Humidity 48    
Precipitation  
Precipitation 0.00 in - - ()
Sea Level Pressure  
Sea Level Pressure 29.96 in    
Wind  
Wind Speed 9 mph (West)    
Max Wind Speed 21 mph    
Max Gust Speed 28 mph    
Visibility 10 miles    
Events      
Averages and records for this station are not official NWS values.
T = Trace of Precipitation, MM = Missing Value Source: NWS Daily Summary

Daily Weather History Graph

Daily Weather History Graph

Search for Another Location

Airport or City:

Astronomy

Oct. 31, 2019 Rise Set
Actual Time 8:35 AM CDT 6:36 PM CDT
Civil Twilight 8:03 AM CDT 7:09 PM CDT
Nautical Twilight 7:26 AM CDT 7:45 PM CDT
Astronomical Twilight 6:51 AM CDT 8:21 PM CDT
Moon 12:39 PM CDT (10/31) 9:21 PM CDT (10/31)
Length of Visible Light 11h 05m
Length of Day
10h 01m
Waxing Crescent, 16% of the Moon is Illuminated
Oct 31
Waxing Crescent
Nov 4
First Quarter
Nov 12
Full
Nov 19
Last Quarter
Nov 26
New

Hourly Weather History & Observations

Time (CDT) Temp. Windchill Dew Point Humidity Pressure Visibility Wind Dir Wind Speed Gust Speed Precip Events Conditions
12:15 AM 14.0 °F 6.5 °F 6.8 °F 73% 30.09 in 10.0 mi West 4.6 mph - N/A   Clear
12:35 AM 14.0 °F 8.2 °F 6.8 °F 73% 30.09 in 10.0 mi West 3.5 mph - N/A   Clear
12:55 AM 15.8 °F 7.2 °F 8.6 °F 73% 30.09 in 10.0 mi WSW 5.8 mph - N/A   Clear
1:15 AM 15.8 °F 10.2 °F 8.6 °F 73% 30.08 in 10.0 mi Variable 3.5 mph - N/A   Clear
1:35 AM 21.2 °F 10.1 °F 10.4 °F 63% 30.07 in 10.0 mi SW 10.4 mph - N/A   Clear
1:55 AM 23.0 °F 13.9 °F 8.6 °F 54% 30.07 in 10.0 mi SW 8.1 mph - N/A   Partly Cloudy
2:15 AM 21.2 °F 12.6 °F 10.4 °F 63% 30.06 in 10.0 mi SW 6.9 mph - N/A   Partly Cloudy
2:35 AM 21.2 °F 11.7 °F 8.6 °F 58% 30.05 in 10.0 mi SW 8.1 mph - N/A   Clear
2:55 AM 23.0 °F 13.9 °F 10.4 °F 59% 30.05 in 10.0 mi SW 8.1 mph - N/A   Clear
3:15 AM 23.0 °F 13.9 °F 10.4 °F 59% 30.04 in 10.0 mi SW 8.1 mph - N/A   Clear
3:35 AM 23.0 °F 14.7 °F 10.4 °F 59% 30.04 in 10.0 mi SW 6.9 mph - N/A   Partly Cloudy
3:55 AM 23.0 °F 13.9 °F 10.4 °F 59% 30.03 in 10.0 mi SW 8.1 mph - N/A   Scattered Clouds
4:15 AM 23.0 °F 17.0 °F 10.4 °F 59% 30.02 in 10.0 mi Variable 4.6 mph - N/A   Mostly Cloudy
4:35 AM 24.8 °F 16.9 °F 12.2 °F 59% 30.01 in 10.0 mi WSW 6.9 mph - N/A   Overcast
4:55 AM 24.8 °F 14.0 °F 10.4 °F 54% 29.99 in 10.0 mi SW 11.5 mph - N/A   Overcast
5:15 AM 24.8 °F 15.3 °F 10.4 °F 54% 29.99 in 10.0 mi SW 9.2 mph - N/A   Mostly Cloudy
5:35 AM 23.0 °F 13.1 °F 10.4 °F 59% 29.98 in 10.0 mi SW 9.2 mph - N/A   Scattered Clouds
5:55 AM 23.0 °F 11.1 °F 10.4 °F 59% 29.97 in 10.0 mi SW 12.7 mph - N/A   Partly Cloudy
6:15 AM 23.0 °F 11.1 °F 10.4 °F 59% 29.96 in 10.0 mi SW 12.7 mph - N/A   Clear
6:35 AM 23.0 °F 14.7 °F 10.4 °F 59% 29.96 in 10.0 mi WSW 6.9 mph - N/A   Clear
6:55 AM 23.0 °F 14.7 °F 10.4 °F 59% 29.95 in 10.0 mi SW 6.9 mph - N/A   Scattered Clouds
7:15 AM 23.0 °F 14.7 °F 12.2 °F 63% 29.95 in 10.0 mi WSW 6.9 mph - N/A   Mostly Cloudy
7:35 AM 24.8 °F 16.1 °F 12.2 °F 59% 29.95 in 10.0 mi SW 8.1 mph 13.8 mph N/A   Mostly Cloudy
7:55 AM 24.8 °F 16.1 °F 12.2 °F 59% 29.94 in 10.0 mi SW 8.1 mph - N/A   Overcast
8:15 AM 26.6 °F 15.7 °F 12.2 °F 55% 29.93 in 10.0 mi WSW 12.7 mph - N/A   Overcast
8:35 AM 26.6 °F 16.2 °F 12.2 °F 55% 29.93 in 10.0 mi WSW 11.5 mph - N/A   Mostly Cloudy
8:55 AM 26.6 °F 21.2 °F 12.2 °F 55% 29.93 in 10.0 mi WSW 4.6 mph 11.5 mph N/A   Scattered Clouds
9:15 AM 26.6 °F 19.1 °F 14.0 °F 59% 29.92 in 10.0 mi WSW 6.9 mph - N/A   Scattered Clouds
9:35 AM 28.4 °F 20.4 °F 14.0 °F 55% 29.92 in 10.0 mi SW 8.1 mph - N/A   Scattered Clouds
9:55 AM 30.2 °F 20.2 °F 14.0 °F 51% 29.91 in 10.0 mi WSW 12.7 mph - N/A   Partly Cloudy
10:15 AM 33.8 °F 23.5 °F 15.8 °F 48% 29.91 in 10.0 mi West 16.1 mph - N/A   Partly Cloudy
10:35 AM 33.8 °F 23.2 °F 17.6 °F 52% 29.91 in 10.0 mi West 17.3 mph - N/A   Partly Cloudy
10:55 AM 33.8 °F 23.5 °F 17.6 °F 52% 29.92 in 10.0 mi West 16.1 mph - N/A   Partly Cloudy
11:15 AM 35.6 °F 26.6 °F 19.4 °F 52% 29.92 in 10.0 mi West 13.8 mph 20.7 mph N/A   Clear
11:35 AM 35.6 °F 25.5 °F 19.4 °F 52% 29.92 in 10.0 mi West 17.3 mph - N/A   Clear
11:55 AM 37.4 °F 28.5 °F 21.2 °F 52% 29.91 in 10.0 mi West 15.0 mph 21.9 mph N/A   Clear
12:15 PM 39.2 °F 29.3 °F 21.2 °F 49% 29.91 in 9.0 mi West 20.7 mph 27.6 mph N/A   Partly Cloudy
1:15 PM 41.0 °F 32.2 °F 24.8 °F 53% 29.91 in 10.0 mi WNW 18.4 mph 26.5 mph N/A   Scattered Clouds
1:35 PM 41.0 °F 32.2 °F 24.8 °F 53% 29.90 in 10.0 mi WNW 18.4 mph 24.2 mph N/A   Overcast
1:55 PM 41.0 °F 32.5 °F 24.8 °F 53% 29.90 in 10.0 mi WNW 17.3 mph 25.3 mph N/A   Overcast
2:15 PM 41.0 °F 32.5 °F 24.8 °F 53% 29.89 in 10.0 mi West 17.3 mph 23.0 mph N/A   Overcast
2:35 PM 41.0 °F 32.2 °F 24.8 °F 53% 29.89 in 10.0 mi WNW 18.4 mph - N/A   Mostly Cloudy
2:55 PM 41.0 °F 32.2 °F 26.6 °F 57% 29.89 in 10.0 mi West 18.4 mph 25.3 mph N/A   Mostly Cloudy
3:15 PM 42.8 °F 35.1 °F 26.6 °F 53% 29.88 in 10.0 mi West 16.1 mph - N/A   Mostly Cloudy
3:35 PM 42.8 °F 34.8 °F 26.6 °F 53% 29.88 in 10.0 mi WNW 17.3 mph 24.2 mph N/A   Scattered Clouds
3:55 PM 42.8 °F 35.1 °F 28.4 °F 57% 29.89 in 10.0 mi WNW 16.1 mph 25.3 mph N/A   Mostly Cloudy
4:15 PM 41.0 °F 32.8 °F 28.4 °F 61% 29.90 in 10.0 mi NW 16.1 mph 24.2 mph N/A   Mostly Cloudy
4:35 PM 41.0 °F 33.5 °F 28.4 °F 61% 29.89 in 10.0 mi NW 13.8 mph 23.0 mph N/A   Mostly Cloudy
4:55 PM 41.0 °F 33.1 °F 28.4 °F 61% 29.90 in 10.0 mi NW 15.0 mph - N/A   Mostly Cloudy
5:15 PM 41.0 °F 32.5 °F 28.4 °F 61% 29.90 in 10.0 mi WNW 17.3 mph 25.3 mph N/A   Mostly Cloudy
5:35 PM 41.0 °F 33.9 °F 28.4 °F 61% 29.91 in 10.0 mi NW 12.7 mph - N/A   Overcast
5:55 PM 41.0 °F 34.7 °F 30.2 °F 65% 29.91 in 10.0 mi NW 10.4 mph 17.3 mph N/A   Overcast
6:15 PM 39.2 °F 34.2 °F 28.4 °F 65% 29.92 in 10.0 mi NW 6.9 mph - N/A   Overcast
6:35 PM 39.2 °F 35.0 °F 28.4 °F 65% 29.92 in 10.0 mi NW 5.8 mph - N/A   Overcast
6:55 PM 39.2 °F 34.2 °F 28.4 °F 65% 29.93 in 10.0 mi NW 6.9 mph - N/A   Overcast
7:15 PM 39.2 °F 33.0 °F 30.2 °F 70% 29.94 in 10.0 mi NW 9.2 mph 16.1 mph N/A   Overcast
7:35 PM 39.2 °F 31.6 °F 30.2 °F 70% 29.94 in 10.0 mi NW 12.7 mph 19.6 mph N/A   Overcast
7:55 PM 37.4 °F 29.8 °F 30.2 °F 75% 29.95 in 10.0 mi NNW 11.5 mph - N/A   Overcast
8:35 PM 37.4 °F 31.4 °F 32.0 °F 81% 29.95 in 10.0 mi WNW 8.1 mph - N/A   Overcast
8:55 PM 37.4 °F 29.3 °F 30.2 °F 75% 29.96 in 10.0 mi NW 12.7 mph - N/A   Overcast
9:15 PM 35.6 °F 27.5 °F 32.0 °F 87% 29.96 in 10.0 mi WNW 11.5 mph 18.4 mph N/A   Mostly Cloudy
9:35 PM 35.6 °F 29.2 °F 32.0 °F 87% 29.96 in 10.0 mi WNW 8.1 mph - N/A   Mostly Cloudy
9:55 PM 35.6 °F 29.2 °F 32.0 °F 87% 29.96 in 10.0 mi WNW 8.1 mph - N/A   Overcast
10:15 PM 35.6 °F 30.7 °F 32.0 °F 87% 29.97 in 10.0 mi WNW 5.8 mph - N/A   Overcast
10:35 PM 35.6 °F 30.7 °F 32.0 °F 87% 29.97 in 10.0 mi West 5.8 mph - N/A   Overcast
10:55 PM 33.8 °F 27.7 °F 32.0 °F 93% 29.97 in 10.0 mi SW 6.9 mph - N/A   Overcast
11:15 PM 33.8 °F 27.7 °F 32.0 °F 93% 29.97 in 10.0 mi SW 6.9 mph - N/A   Overcast
11:35 PM 33.8 °F 27.0 °F 32.0 °F 93% 29.97 in 10.0 mi SW 8.1 mph - N/A   Overcast
11:55 PM 33.8 °F 27.0 °F 32.0 °F 93% 29.97 in 10.0 mi WSW 8.1 mph - N/A   Overcast